TimeCDT,TemperatureF,Dew PointF,Humidity,Sea Level PressureIn,VisibilityMPH,Wind Direction,Wind SpeedMPH,Gust SpeedMPH,PrecipitationIn,Events,Conditions,WindDirDegrees,DateUTC
12:53 AM,68.0,66.0,93,29.90,6.0,Calm,Calm,-,N/A,,Clear,0,2013-08-20 05:53:00
1:53 AM,68.0,66.0,93,29.90,9.0,Calm,Calm,-,N/A,,Clear,0,2013-08-20 06:53:00
2:53 AM,66.0,64.9,96,29.89,6.0,Calm,Calm,-,N/A,,Clear,0,2013-08-20 07:53:00
3:53 AM,64.0,63.0,96,29.90,5.0,Calm,Calm,-,N/A,,Clear,0,2013-08-20 08:53:00
4:53 AM,64.0,63.0,96,29.89,4.0,Calm,Calm,-,N/A,,Clear,0,2013-08-20 09:53:00
5:53 AM,64.0,62.1,93,29.88,4.0,Calm,Calm,-,N/A,,Clear,0,2013-08-20 10:53:00
6:53 AM,63.0,61.0,93,29.90,3.0,Calm,Calm,-,N/A,,Clear,0,2013-08-20 11:53:00
7:53 AM,64.9,64.0,97,29.91,3.0,Calm,Calm,-,N/A,,Clear,0,2013-08-20 12:53:00
8:53 AM,70.0,66.0,87,29.92,8.0,South,4.6,-,N/A,,Clear,180,2013-08-20 13:53:00
9:53 AM,73.9,66.9,79,29.91,10.0,SSW,8.1,-,N/A,,Clear,210,2013-08-20 14:53:00
10:53 AM,79.0,69.1,72,29.91,10.0,South,9.2,-,N/A,,Clear,180,2013-08-20 15:53:00
11:53 AM,82.0,70.0,67,29.91,10.0,South,9.2,-,N/A,,Clear,180,2013-08-20 16:53:00
12:53 PM,86.0,71.1,61,29.90,10.0,South,11.5,-,N/A,,Clear,180,2013-08-20 17:53:00
1:53 PM,87.1,71.1,59,29.88,10.0,South,11.5,-,N/A,,Clear,190,2013-08-20 18:53:00
2:53 PM,88.0,71.1,57,29.88,10.0,South,12.7,18.4,N/A,,Clear,170,2013-08-20 19:53:00
3:53 PM,89.1,70.0,53,29.86,10.0,South,13.8,-,N/A,,Clear,180,2013-08-20 20:53:00
4:53 PM,89.1,69.1,52,29.85,10.0,South,15.0,21.9,N/A,,Clear,180,2013-08-20 21:53:00
5:53 PM,88.0,68.0,51,29.85,10.0,South,15.0,21.9,N/A,,Clear,190,2013-08-20 22:53:00
6:53 PM,86.0,70.0,59,29.85,10.0,SSE,8.1,-,N/A,,Clear,160,2013-08-20 23:53:00
7:53 PM,82.9,71.1,67,29.85,10.0,SE,5.8,-,N/A,,Clear,130,2013-08-21 00:53:00
8:53 PM,80.1,70.0,71,29.86,10.0,SSE,4.6,-,N/A,,Clear,150,2013-08-21 01:53:00
9:53 PM,77.0,69.1,76,29.87,10.0,SSE,4.6,-,N/A,,Clear,160,2013-08-21 02:53:00
10:53 PM,77.0,68.0,74,29.86,10.0,South,9.2,-,N/A,,Clear,190,2013-08-21 03:53:00
11:53 PM,77.0,66.0,69,29.87,10.0,South,9.2,-,N/A,,Clear,190,2013-08-21 04:53:00